Tracking 20232 objects as of 20-Jan-2020
HD Live streaming from Space Station
objects crossing your sky now

LES 5

Track LES 5 now!
LES 5 is classified as:


NORAD ID: 2866
Int'l Code: 1967-066E
Perigee: 33,176.7 km
Apogee: 33,639.6 km
Inclination: 3.2 °
Period: 1,316.0 minutes
Semi major axis: 39779 km
RCS: 2.6184 m2 (large)
Launch date: July 1, 1967
Source: United States (US)
Launch site: AIR FORCE EASTERN TEST RANGE (AFETR)
aabbcc
Your satellite tracking list
Your tracking list is empty




NASA's NSSDC Master Catalog

Two Line Element Set (TLE):
1  2866U 67066E   20019.50693852 -.00000109 +00000-0 +00000-0 0  9998
2  2866 003.1775 277.2543 0058179 351.9520 294.8705 01.09425834105414
Source of the keplerian elements: AFSPC